This is the latest recevied weather packets stored in our database for station/object KJ5IIV. If no packets are shown the sender has not sent any weather packets the latest 10 day(s).
| Time | Temp. | Humidity | Pressure | Rain* | Wind** | Luminosity | Snow |
|---|---|---|---|---|---|---|---|
| 1778084451 | 13.89° C | 92% | 1014.8 hPa | 0 mm | - | 81 W/m² | - |
| 1778084149 | 13.33° C | 91% | 1014.9 hPa | 0 mm | - | 54 W/m² | - |
| 1778083845 | 13.33° C | 91% | 1014.8 hPa | 0 mm | - | 40 W/m² | - |
| 1778083543 | 13.33° C | 90% | 1014.3 hPa | 0 mm | - | 51 W/m² | - |
| 1778083240 | 13.33° C | 90% | 1014.2 hPa | 0 mm | - | 69 W/m² | - |
| 1778082938 | 13.33° C | 90% | 1014 hPa | 0 mm | - | 87 W/m² | - |
| 1778081829 | 13.89° C | 88% | 1013.5 hPa | 0 mm | - | 66 W/m² | - |
| 1778081527 | 13.89° C | 88% | 1013.4 hPa | 0 mm | - | 74 W/m² | - |
| 1778081223 | 13.89° C | 88% | 1013.1 hPa | 0 mm | - | 136 W/m² | - |
| 1778080921 | 13.89° C | 88% | 1013.1 hPa | 0 mm | - | 155 W/m² | - |
| 1778080620 | 13.89° C | 88% | 1013.3 hPa | 0 mm | - | 127 W/m² | - |
| 1778080316 | 13.89° C | 87% | 1013.4 hPa | 0 mm | - | 97 W/m² | - |
| 1778080013 | 13.89° C | 88% | 1013.6 hPa | 0 mm | - | 91 W/m² | - |
| 1778079710 | 13.89° C | 88% | 1013.3 hPa | 0 mm | - | 136 W/m² | - |
| 1778079406 | 13.89° C | 88% | 1013.2 hPa | 0 mm | - | 116 W/m² | - |
| 1778079103 | 13.89° C | 88% | 1013.1 hPa | 0 mm | - | 100 W/m² | - |
| 1778078801 | 13.89° C | 87% | 1012.9 hPa | 0 mm | - | 100 W/m² | - |
| 1778078497 | 13.89° C | 88% | 1012.9 hPa | 0 mm | - | 90 W/m² | - |
| 1778078195 | 13.89° C | 88% | 1012.8 hPa | 0 mm | - | 73 W/m² | - |
| 1778077893 | 13.33° C | 88% | 1012.8 hPa | 0 mm | - | 86 W/m² | - |
| 1778077591 | 13.33° C | 88% | 1012.6 hPa | 0 mm | - | 97 W/m² | - |
| 1778077289 | 13.33° C | 88% | 1012.7 hPa | 0 mm | - | 99 W/m² | - |
| 1778076986 | 13.33° C | 87% | 1012.6 hPa | 0 mm | - | 97 W/m² | - |
| 1778076685 | 13.33° C | 87% | 1012.6 hPa | 0 mm | - | 122 W/m² | - |
| 1778076382 | 13.33° C | 87% | 1012.5 hPa | 0 mm | - | 121 W/m² | - |
* Rain latest hour (hover to see other rain measurements)
** Current wind speed in m/s (hover to see current wind gust speed)